TimeCDT,TemperatureF,Dew PointF,Humidity,Sea Level PressureIn,VisibilityMPH,Wind Direction,Wind SpeedMPH,Gust SpeedMPH,PrecipitationIn,Events,Conditions,WindDirDegrees,DateUTC
12:55 AM,21.9,14.0,72,30.42,10.0,NNW,5.8,-,N/A,,Clear,330,2013-03-26 05:55:00
1:55 AM,21.0,12.9,71,30.41,10.0,NW,4.6,-,N/A,,Clear,310,2013-03-26 06:55:00
2:55 AM,19.9,12.9,74,30.41,10.0,West,5.8,-,N/A,,Clear,280,2013-03-26 07:55:00
3:55 AM,18.0,12.0,78,30.41,10.0,West,5.8,-,N/A,,Clear,270,2013-03-26 08:55:00
4:55 AM,17.1,12.0,81,30.41,10.0,West,6.9,-,N/A,,Clear,270,2013-03-26 09:55:00
5:55 AM,15.1,10.9,84,30.42,10.0,West,5.8,-,N/A,,Clear,280,2013-03-26 10:55:00
6:55 AM,15.1,10.0,80,30.42,10.0,West,4.6,-,N/A,,Clear,280,2013-03-26 11:55:00
7:55 AM,16.0,10.9,81,30.43,9.0,West,4.6,-,N/A,,Clear,260,2013-03-26 12:55:00
8:55 AM,21.9,15.1,75,30.44,9.0,WNW,3.5,-,N/A,,Clear,290,2013-03-26 13:55:00
9:55 AM,28.0,17.1,63,30.43,10.0,West,3.5,-,N/A,,Clear,270,2013-03-26 14:55:00
10:55 AM,30.0,15.1,54,30.42,10.0,SSW,3.5,-,N/A,,Clear,210,2013-03-26 15:55:00
11:55 AM,34.0,16.0,48,30.40,10.0,Variable,3.5,-,N/A,,Clear,0,2013-03-26 16:55:00
12:55 PM,37.0,17.1,44,30.38,10.0,SW,9.2,-,N/A,,Clear,220,2013-03-26 17:55:00
1:55 PM,39.0,16.0,39,30.35,10.0,Variable,5.8,-,N/A,,Clear,0,2013-03-26 18:55:00
2:55 PM,41.0,16.0,36,30.32,10.0,Variable,4.6,-,N/A,,Clear,0,2013-03-26 19:55:00
3:55 PM,44.1,17.1,34,30.28,10.0,Variable,4.6,-,N/A,,Clear,0,2013-03-26 20:55:00
4:55 PM,45.0,18.0,34,30.25,10.0,South,9.2,-,N/A,,Clear,170,2013-03-26 21:55:00
5:55 PM,45.0,18.0,34,30.24,10.0,SSE,11.5,-,N/A,,Clear,160,2013-03-26 22:55:00
6:55 PM,43.0,19.9,40,30.26,10.0,South,13.8,-,N/A,,Clear,170,2013-03-26 23:55:00
7:55 PM,37.0,21.9,54,30.24,10.0,SE,10.4,-,N/A,,Clear,140,2013-03-27 00:55:00
8:55 PM,33.1,21.0,61,30.24,10.0,SE,10.4,-,N/A,,Clear,130,2013-03-27 01:55:00
9:55 PM,30.9,21.9,69,30.23,10.0,SE,11.5,-,N/A,,Clear,130,2013-03-27 02:55:00
10:55 PM,30.9,23.0,72,30.25,10.0,SE,12.7,-,N/A,,Clear,130,2013-03-27 03:55:00
11:55 PM,30.9,21.9,69,30.24,10.0,SE,12.7,-,N/A,,Clear,130,2013-03-27 04:55:00